Northeast Philadelphia, PA

1:17 PM EST on November 20, 2017 (GMT -0500)
Northeast Philadelphia

Weather History for KPNE - August, 2013

Change the Weather History Date:

Friday, August 23, 2013

  Actual Average Record
Temperature  
Mean Temperature 74 °F -  
Max Temperature 79 °F 82 °F 90 °F (1996)
Min Temperature 68 °F 64 °F 57 °F (1999)
Cooling Degree Days 10    
Growing Degree Days 24 (Base 50)    
Moisture  
Dew Point 62 °F    
Average Humidity 67    
Maximum Humidity 81    
Minimum Humidity 48    
Precipitation  
Precipitation 0.00 in - - ()
Sea Level Pressure  
Sea Level Pressure 30.01 in    
Wind  
Wind Speed 7 mph (NNW)    
Max Wind Speed 14 mph    
Max Gust Speed -    
Visibility 10 miles    
Events      
Averages and records for this station are not official NWS values.
T = Trace of Precipitation, MM = Missing Value Source: NWS Daily Summary

Daily Weather History Graph

Daily Weather History Graph

Search for Another Location

Airport or City:

Trip Planner

Search our weather history database for the weather conditions in past years. The results will help you decide how hot, cold, wet, or windy it might be!

Date:

Astronomy

Aug. 23, 2013 Rise Set
Actual Time 6:19 AM EDT 7:45 PM EDT
Civil Twilight 5:50 AM EDT 8:13 PM EDT
Nautical Twilight 5:16 AM EDT 8:47 PM EDT
Astronomical Twilight 4:40 AM EDT 9:23 PM EDT
Moon 9:02 PM EDT (8/23) 9:12 AM EDT (8/23)
Length of Visible Light 14h 22m
Length of Day
13h 25m
Waning Gibbous, 91% of the Moon is Illuminated
Aug 23
Waning Gibbous
Aug 28
Last Quarter
Sep 5
New
Sep 12
First Quarter
Sep 19
Full

Hourly Weather History & Observations

Time (EDT) Temp. Dew Point Humidity Pressure Visibility Wind Dir Wind Speed Gust Speed Precip Events Conditions
12:54 AM 75.0 °F 66.9 °F 76% 29.93 in 10.0 mi West 5.8 mph - N/A   Scattered Clouds
1:54 AM 75.0 °F 66.9 °F 76% 29.93 in 10.0 mi WNW 5.8 mph - N/A   Mostly Cloudy
2:54 AM 73.9 °F 66.0 °F 76% 29.93 in 10.0 mi NNW 6.9 mph - N/A   Scattered Clouds
3:54 AM 73.0 °F 64.9 °F 76% 29.93 in 10.0 mi WNW 4.6 mph - N/A   Scattered Clouds
4:54 AM 72.0 °F 64.9 °F 78% 29.93 in 10.0 mi NW 5.8 mph - N/A   Clear
5:54 AM 71.1 °F 64.9 °F 81% 29.94 in 10.0 mi NW 9.2 mph - N/A   Clear
6:54 AM 71.1 °F 64.9 °F 81% 29.96 in 9.0 mi NNW 12.7 mph - N/A   Clear
7:54 AM 73.9 °F 64.9 °F 73% 29.99 in 10.0 mi North 9.2 mph - N/A   Clear
8:54 AM 73.9 °F 64.9 °F 73% 30.00 in 10.0 mi North 9.2 mph - N/A   Clear
9:54 AM 75.0 °F 64.0 °F 69% 30.01 in 10.0 mi North 13.8 mph - N/A   Clear
10:54 AM 75.0 °F 63.0 °F 66% 30.02 in 10.0 mi North 10.4 mph - N/A   Clear
11:54 AM 75.9 °F 62.1 °F 62% 30.03 in 10.0 mi North 9.2 mph - N/A   Clear
12:54 PM 77.0 °F 59.0 °F 54% 30.03 in 10.0 mi NNW 6.9 mph - N/A   Clear
1:54 PM 78.1 °F 57.9 °F 50% 30.03 in 10.0 mi NNW 8.1 mph - N/A   Clear
2:54 PM 78.1 °F 57.0 °F 48% 30.01 in 10.0 mi North 10.4 mph - N/A   Clear
3:54 PM 77.0 °F 59.0 °F 54% 30.02 in 10.0 mi NW 5.8 mph - N/A   Mostly Cloudy
4:54 PM 77.0 °F 61.0 °F 58% 30.02 in 10.0 mi NW 4.6 mph - N/A   Clear
5:54 PM 77.0 °F 61.0 °F 58% 30.02 in 10.0 mi NW 4.6 mph - N/A   Clear
6:54 PM 77.0 °F 62.1 °F 60% 30.02 in 10.0 mi NNW 6.9 mph - N/A   Clear
7:54 PM 75.0 °F 62.1 °F 64% 30.04 in 10.0 mi NNW 3.5 mph - N/A   Clear
8:54 PM 71.1 °F 62.1 °F 73% 30.06 in 10.0 mi Calm Calm - N/A   Clear
9:54 PM 71.1 °F 62.1 °F 73% 30.09 in 10.0 mi NW 4.6 mph - N/A   Clear
10:54 PM 71.1 °F 57.9 °F 63% 30.09 in 10.0 mi North 9.2 mph - N/A   Partly Cloudy
11:54 PM 68.0 °F 59.0 °F 73% 30.11 in 10.0 mi NNE 4.6 mph - N/A   Clear